Content
SEND FEEDBACK

Daily
Averages
Monthly
Summary
United States of America

WILMINGTON, NORTH CAROLINA


Home > North America > United States > North Carolina
Elevation: 72 feet     Latitude: 34 16N     Longitude: 077 54W

WEATHER
 
SELECT A DAY
Number of Records: 209,103;   Date Range: 1/1/95 - 9/18/14
 
SHARE

PRINT THIS DATA

[ ← Previous Day ]
WEATHER ALMANAC - SEPTEMBER 28, 2013
[ Next Day → ]
[ °C ]   °F
Weather ElementAverageHighLow
Temperature68.8 °F77 °F (1:53 pm)61 °F (11:53 pm)
Dewpoint57.2 °F57.9 °F (8:53 am)55.9 °F (1:53 am)
Humidity67.8 %87 % (11:53 pm)50 % (1:53 pm)
Barometer30.12 in30.16 in (9:53 am)30.09 in (3:53 am)
Wind Speed11.4 mph16.1 mph (1:53 pm)
Wind Gust21.9 mph (9:53 am)
Weather ElementAverage
Visibility10 mi
Wind DirectionNNE (23 °)

Weather ElementTotal
Precipitation---
Cooling Degree Days4 (Base 65)
Growing Degree Days19 (Base 50)
Averaged from 23 records on September 28, 2013
WEATHER CONDITIONS BREAKOUT
WIND DIRECTION BREAKOUT
WEATHER BY HOUR - SEPTEMBER 28, 2013
[ °C ]   °F
Local TimeTemperatureDewpointHumidityBarometerVisibilityWind DirectionWind SpeedGust SpeedPrecipitationEventsConditions
1:53 AM64.0 °F55.9 °F75 %30.11 in10.0 miNNE (30°)11.5 mphOvercast
2:53 AM64.0 °F55.9 °F75 %30.10 in10.0 miNNE (20°)11.5 mph0.00 inOvercast
3:53 AM63.0 °F57.0 °F81 %30.09 in10.0 miNorth (10°)9.2 mph0.00 inOvercast
4:53 AM64.0 °F57.0 °F78 %30.09 in10.0 miNNE (20°)12.7 mphOvercast
5:53 AM63.0 °F57.0 °F81 %30.10 in10.0 miNNE (20°)8.1 mphOvercast
6:53 AM63.0 °F57.0 °F81 %30.12 in10.0 miNorth (10°)11.5 mphOvercast
7:53 AM63.0 °F57.0 °F81 %30.14 in10.0 miNorth (10°)9.2 mphMostly Cloudy
8:53 AM64.9 °F57.9 °F78 %30.15 in10.0 miNorth (10°)12.7 mphScattered Clouds
9:53 AM70.0 °F57.9 °F65 %30.16 in10.0 miNNE (30°)13.8 mph21.9 mphClear
10:53 AM73.0 °F57.9 °F59 %30.16 in10.0 miNNE (30°)15.0 mphClear
11:53 AM75.9 °F57.9 °F54 %30.16 in10.0 miNE (40°)15.0 mph21.9 mphClear
12:53 PM75.0 °F57.9 °F55 %30.16 in10.0 miNNE (30°)15.0 mphMostly Cloudy
1:53 PM77.0 °F57.0 °F50 %30.14 in10.0 miNorth (10°)16.1 mph20.7 mphMostly Cloudy
2:53 PM77.0 °F57.0 °F50 %30.12 in10.0 miNNE (20°)13.8 mphMostly Cloudy
3:53 PM75.9 °F57.0 °F52 %30.11 in10.0 miNNE (20°)12.7 mphMostly Cloudy
4:53 PM77.0 °F57.0 °F50 %30.10 in10.0 miNorth (10°)9.2 mphOvercast
5:53 PM75.9 °F55.9 °F50 %30.10 in10.0 miNNE (30°)9.2 mphClear
6:53 PM72.0 °F57.9 °F61 %30.11 in10.0 miNNE (20°)6.9 mphPartly Cloudy
7:53 PM70.0 °F57.9 °F65 %30.12 in10.0 miNNE (20°)8.1 mphMostly Cloudy
8:53 PM66.9 °F57.9 °F73 %30.13 in10.0 miNNE (30°)12.7 mphClear
9:53 PM64.0 °F57.0 °F78 %30.13 in10.0 miNNE (30°)9.2 mphClear
10:53 PM63.0 °F57.0 °F81 %30.13 in10.0 miNE (40°)10.4 mphClear
11:53 PM61.0 °F57.0 °F87 %30.12 in10.0 miNE (40°)9.2 mphClear
Hourly data recorded from KILM, located miles away from Wilmington, North Carolina







STORIES FROM OUR PARTNERS